Cleveland Burke, OH

8:57 PM EST on November 18, 2017 (GMT -0500)
Burke Lakefront

Weather History for KBKL - February, 2013

Change the Weather History Date:

Thursday, February 7, 2013

  Actual Average Record
Temperature  
Mean Temperature 34 °F -  
Max Temperature 45 °F 36 °F 60 °F (2017)
Min Temperature 24 °F 24 °F 0 °F (2014)
Degree Days  
Heating Degree Days 30    
Moisture  
Dew Point 22 °F    
Average Humidity 60    
Maximum Humidity 69    
Minimum Humidity 47    
Precipitation  
Precipitation 0.00 in - - ()
Sea Level Pressure  
Sea Level Pressure 30.13 in    
Wind  
Wind Speed 8 mph (SE)    
Max Wind Speed 20 mph    
Max Gust Speed 29 mph    
Visibility 10 miles    
Events      
Averages and records for this station are not official NWS values.
T = Trace of Precipitation, MM = Missing Value Source: NWS Daily Summary

Daily Weather History Graph

Daily Weather History Graph

Search for Another Location

Airport or City:

Trip Planner

Search our weather history database for the weather conditions in past years. The results will help you decide how hot, cold, wet, or windy it might be!

Date:

Astronomy

Feb. 07, 2013 Rise Set
Actual Time 7:31 AM EST 5:50 PM EST
Civil Twilight 7:02 AM EST 6:19 PM EST
Nautical Twilight 6:29 AM EST 6:52 PM EST
Astronomical Twilight 5:57 AM EST 7:24 PM EST
Moon 5:11 AM EST (2/7) 3:12 PM EST (2/7)
Length of Visible Light 11h 16m
Length of Day
10h 19m
Waning Crescent, 9% of the Moon is Illuminated
Feb 7
Waning Crescent
Feb 10
New
Feb 17
First Quarter
Feb 25
Full
Mar 4
Last Quarter

Hourly Weather History & Observations

Time (EST) Temp. Windchill Dew Point Humidity Pressure Visibility Wind Dir Wind Speed Gust Speed Precip Events Conditions
12:53 AM 24.1 °F 16.0 °F 14.0 °F 65% 30.30 in 10.0 mi SSE 6.9 mph - N/A   Clear
1:53 AM 24.1 °F - 15.1 °F 69% 30.31 in 10.0 mi Calm Calm - N/A   Mostly Cloudy
2:53 AM 25.0 °F 20.7 °F 15.1 °F 66% 30.31 in 10.0 mi SSE 3.5 mph - N/A   Overcast
3:53 AM 27.0 °F 18.7 °F 14.0 °F 58% 30.29 in 10.0 mi SSE 8.1 mph - N/A   Mostly Cloudy
4:53 AM 26.1 °F 16.8 °F 15.1 °F 63% 30.30 in 10.0 mi SSE 9.2 mph - N/A   Overcast
5:53 AM 27.0 °F 18.7 °F 16.0 °F 63% 30.29 in 10.0 mi SE 8.1 mph - N/A   Overcast
6:53 AM 28.0 °F 19.3 °F 17.1 °F 63% 30.28 in 10.0 mi SE 9.2 mph - N/A   Overcast
7:53 AM 28.0 °F 19.3 °F 17.1 °F 63% 30.27 in 10.0 mi SE 9.2 mph - N/A   Overcast
8:53 AM 28.0 °F 21.7 °F 17.1 °F 63% 30.27 in 10.0 mi SSE 5.8 mph - N/A   Overcast
9:53 AM 30.9 °F 23.5 °F 19.0 °F 61% 30.23 in 10.0 mi SE 8.1 mph - N/A   Mostly Cloudy
10:53 AM 32.0 °F 23.6 °F 21.0 °F 64% 30.22 in 10.0 mi SSE 10.4 mph - N/A   Overcast
11:53 AM 35.1 °F 27.9 °F 23.0 °F 61% 30.19 in 10.0 mi ESE 9.2 mph - N/A   Overcast
12:53 PM 39.9 °F 33.4 °F 21.9 °F 49% 30.14 in 10.0 mi SE 10.4 mph - N/A   Partly Cloudy
1:53 PM 42.1 °F 37.7 °F 24.1 °F 49% 30.09 in 10.0 mi SE 6.9 mph - N/A   Clear
2:53 PM 44.1 °F 39.5 °F 25.0 °F 47% 30.08 in 10.0 mi SE 8.1 mph - N/A   Clear
3:53 PM 45.0 °F 41.2 °F 26.1 °F 48% 30.05 in 10.0 mi SSE 6.9 mph - N/A   Clear
4:53 PM 39.9 °F 36.7 °F 28.0 °F 63% 30.02 in 10.0 mi NNE 4.6 mph - N/A   Clear
5:53 PM 43.0 °F 40.3 °F 26.1 °F 51% 30.00 in 10.0 mi ESE 4.6 mph - N/A   Clear
6:53 PM 42.1 °F 37.7 °F 26.1 °F 53% 29.99 in 10.0 mi ESE 6.9 mph - N/A   Clear
7:53 PM 39.9 °F 32.9 °F 27.0 °F 60% 29.97 in 10.0 mi SE 11.5 mph - N/A   Clear
8:53 PM 39.0 °F 31.4 °F 27.0 °F 62% 29.94 in 10.0 mi SE 12.7 mph - N/A   Clear
9:53 PM 39.0 °F 30.3 °F 27.0 °F 62% 29.91 in 10.0 mi SSE 16.1 mph 25.3 mph N/A   Clear
10:53 PM 37.9 °F 29.2 °F 27.0 °F 65% 29.88 in 10.0 mi SSE 15.0 mph 24.2 mph N/A   Scattered Clouds
11:53 PM 37.9 °F 27.9 °F 28.0 °F 68% 29.85 in 10.0 mi SSE 19.6 mph 28.8 mph N/A   Overcast